GLO1180 SBGR-SBFI

Flight info

Callsign GLO1180
Flight time 1h 24m
Altitude 36000
Route ASETA UZ152 UPORU
Aircraft B738/M-SDE2E3FGHIRWXY/LB1

Departure

Time 2026-05-06 13:53
Airport São Paulo/Guarulhos–Governor André Franco Montoro International Airport (SBGR)

Arrival

Time 2026-05-06 15:18
Airport Cataratas International Airport (SBFI)
Time Latitude Longitude Altitude Speed Heading
2026-05-06 13:34 -23.42864 -46.48348 2464 ft 0 kts 86°
2026-05-06 13:45 -23.42864 -46.48352 2464 ft 3 kts 87°
2026-05-06 13:46 -23.42864 -46.48381 2464 ft 4 kts 95°
2026-05-06 13:46 -23.42861 -46.48409 2464 ft 4 kts 105°
2026-05-06 13:46 -23.42851 -46.48436 2466 ft 4 kts 127°
2026-05-06 13:46 -23.42833 -46.48451 2467 ft 2 kts 178°
2026-05-06 13:47 -23.42844 -46.48451 2465 ft 4 kts 180°
2026-05-06 13:47 -23.42857 -46.48451 2466 ft 0 kts 180°
2026-05-06 13:50 -23.42860 -46.48451 2465 ft 1 kts 180°
2026-05-06 13:50 -23.42883 -46.48451 2464 ft 6 kts 180°
2026-05-06 13:50 -23.42939 -46.48450 2467 ft 11 kts 179°
2026-05-06 13:50 -23.43027 -46.48448 2468 ft 15 kts 174°
2026-05-06 13:51 -23.43126 -46.48420 2467 ft 14 kts 162°
2026-05-06 13:51 -23.43220 -46.48389 2468 ft 14 kts 163°
2026-05-06 13:51 -23.43310 -46.48360 2468 ft 14 kts 163°
2026-05-06 13:51 -23.43414 -46.48324 2465 ft 15 kts 158°
2026-05-06 13:52 -23.43435 -46.48300 2460 ft 1 kts 73°
2026-05-06 13:52 -23.43430 -46.48290 2460 ft 5 kts 63°
2026-05-06 13:52 -23.43399 -46.48229 2461 ft 14 kts 70°
2026-05-06 13:52 -23.43329 -46.47970 2462 ft 69 kts 73°
2026-05-06 13:53 -23.43130 -46.47233 2461 ft 132 kts 73°
2026-05-06 13:53 -23.42826 -46.46103 2608 ft 170 kts 73°
2026-05-06 13:53 -23.42503 -46.44893 3482 ft 165 kts 75°
2026-05-06 13:53 -23.42177 -46.43674 4153 ft 169 kts 73°
2026-05-06 13:54 -23.41789 -46.42352 4532 ft 199 kts 72°
2026-05-06 13:54 -23.41340 -46.40837 4716 ft 221 kts 72°
2026-05-06 13:54 -23.40843 -46.39166 4995 ft 242 kts 73°
2026-05-06 13:54 -23.40335 -46.37350 5230 ft 264 kts 80°
2026-05-06 13:55 -23.40288 -46.35342 6003 ft 267 kts 96°
2026-05-06 13:55 -23.40773 -46.33387 6861 ft 270 kts 110°
2026-05-06 13:55 -23.41450 -46.31474 7631 ft 272 kts 110°
2026-05-06 13:55 -23.42122 -46.29533 8370 ft 276 kts 109°
2026-05-06 13:56 -23.42825 -46.27590 8785 ft 278 kts 117°
2026-05-06 13:56 -23.44086 -46.25987 8983 ft 284 kts 144°
2026-05-06 13:56 -23.45917 -46.25177 9204 ft 290 kts 169°
2026-05-06 13:56 -23.47961 -46.25203 9906 ft 298 kts 189°
2026-05-06 13:57 -23.49882 -46.26059 10576 ft 306 kts 216°
2026-05-06 13:57 -23.51334 -46.27845 10782 ft 330 kts 242°
2026-05-06 13:57 -23.52056 -46.30288 10971 ft 351 kts 262°
2026-05-06 13:57 -23.52130 -46.32956 11336 ft 362 kts 274°
2026-05-06 13:58 -23.51842 -46.35695 11944 ft 367 kts 278°
2026-05-06 13:58 -23.51437 -46.38451 12606 ft 369 kts 279°
2026-05-06 13:58 -23.51006 -46.41220 13290 ft 372 kts 279°
2026-05-06 13:58 -23.50582 -46.44017 13924 ft 376 kts 279°
2026-05-06 13:59 -23.50173 -46.46848 14506 ft 380 kts 278°
2026-05-06 13:59 -23.49779 -46.49705 15126 ft 382 kts 278°
2026-05-06 13:59 -23.49395 -46.52572 15783 ft 384 kts 277°
2026-05-06 13:59 -23.49018 -46.55458 16418 ft 386 kts 277°
2026-05-06 14:00 -23.48642 -46.58365 17004 ft 390 kts 277°
2026-05-06 14:00 -23.48269 -46.61267 17564 ft 394 kts 276°
2026-05-06 14:00 -23.47889 -46.64230 18200 ft 396 kts 276°
2026-05-06 14:00 -23.47508 -46.67205 18785 ft 398 kts 276°
2026-05-06 14:01 -23.47123 -46.70201 19318 ft 400 kts 276°
2026-05-06 14:01 -23.46736 -46.73210 19859 ft 402 kts 276°
2026-05-06 14:01 -23.46347 -46.76230 20399 ft 404 kts 276°
2026-05-06 14:01 -23.45955 -46.79266 20931 ft 406 kts 276°
2026-05-06 14:02 -23.45561 -46.82315 21450 ft 408 kts 276°
2026-05-06 14:02 -23.45169 -46.85340 21979 ft 410 kts 276°
2026-05-06 14:02 -23.44769 -46.88423 22436 ft 412 kts 276°
2026-05-06 14:02 -23.44367 -46.91518 22949 ft 414 kts 276°
2026-05-06 14:03 -23.43961 -46.94634 23456 ft 416 kts 276°
2026-05-06 14:03 -23.43554 -46.97757 23928 ft 418 kts 276°
2026-05-06 14:03 -23.43143 -47.00904 24322 ft 421 kts 275°
2026-05-06 14:03 -23.42731 -47.04063 24719 ft 422 kts 275°
2026-05-06 14:04 -23.42315 -47.07240 25102 ft 425 kts 275°
2026-05-06 14:04 -23.42039 -47.09348 25345 ft 426 kts 275°
2026-05-06 14:04 -23.41481 -47.13595 25855 ft 429 kts 275°
2026-05-06 14:04 -23.41058 -47.16816 26239 ft 431 kts 274°
2026-05-06 14:05 -23.40630 -47.20055 26540 ft 434 kts 274°
2026-05-06 14:05 -23.40199 -47.23323 26844 ft 438 kts 274°
2026-05-06 14:05 -23.39911 -47.25499 27077 ft 439 kts 274°
2026-05-06 14:05 -23.39328 -47.29912 27536 ft 442 kts 274°
2026-05-06 14:06 -23.39037 -47.32103 27767 ft 443 kts 274°
2026-05-06 14:06 -23.38596 -47.35427 28098 ft 444 kts 273°
2026-05-06 14:06 -23.38007 -47.39849 28508 ft 447 kts 273°
2026-05-06 14:06 -23.37560 -47.43202 28827 ft 449 kts 273°
2026-05-06 14:07 -23.37111 -47.46570 29128 ft 451 kts 272°
2026-05-06 14:07 -23.36811 -47.48809 29319 ft 452 kts 272°
2026-05-06 14:07 -23.36357 -47.52200 29671 ft 453 kts 272°
2026-05-06 14:07 -23.35749 -47.56716 30323 ft 449 kts 272°
2026-05-06 14:08 -23.35449 -47.58938 30615 ft 447 kts 272°
2026-05-06 14:08 -23.34998 -47.62270 31080 ft 443 kts 271°
2026-05-06 14:08 -23.34550 -47.65577 31531 ft 440 kts 271°
2026-05-06 14:08 -23.34106 -47.68866 31924 ft 439 kts 271°
2026-05-06 14:09 -23.33664 -47.72143 32278 ft 438 kts 271°
2026-05-06 14:09 -23.33222 -47.75413 32668 ft 436 kts 271°
2026-05-06 14:09 -23.32787 -47.78623 33063 ft 434 kts 271°
2026-05-06 14:09 -23.32347 -47.81858 33491 ft 431 kts 271°
2026-05-06 14:10 -23.31910 -47.85071 33916 ft 428 kts 271°
2026-05-06 14:10 -23.31474 -47.88264 34311 ft 425 kts 271°
2026-05-06 14:10 -23.31042 -47.91440 34640 ft 423 kts 270°
2026-05-06 14:10 -23.30611 -47.94602 34960 ft 422 kts 270°
2026-05-06 14:11 -23.30182 -47.97747 35291 ft 419 kts 270°
2026-05-06 14:11 -23.29755 -48.00878 35625 ft 417 kts 270°
2026-05-06 14:11 -23.29328 -48.03985 35981 ft 414 kts 270°
2026-05-06 14:11 -23.28914 -48.07034 36194 ft 413 kts 268°
2026-05-06 14:12 -23.29019 -48.13172 36194 ft 401 kts 253°
2026-05-06 14:12 -23.29941 -48.19124 36212 ft 397 kts 253°
2026-05-06 14:13 -23.30831 -48.25039 36193 ft 395 kts 254°
2026-05-06 14:13 -23.31692 -48.30888 36206 ft 393 kts 254°
2026-05-06 14:14 -23.32551 -48.36758 36201 ft 392 kts 254°
2026-05-06 14:14 -23.33621 -48.42539 36207 ft 385 kts 245°
2026-05-06 14:15 -23.35600 -48.47915 36201 ft 383 kts 243°
2026-05-06 14:15 -23.37622 -48.53301 36208 ft 386 kts 243°
2026-05-06 14:16 -23.39645 -48.58733 36206 ft 389 kts 243°
2026-05-06 14:16 -23.41660 -48.64171 36207 ft 391 kts 243°
2026-05-06 14:17 -23.43695 -48.69681 36200 ft 393 kts 243°
2026-05-06 14:17 -23.45739 -48.75220 36211 ft 394 kts 243°
2026-05-06 14:18 -23.47783 -48.80768 36200 ft 395 kts 243°
2026-05-06 14:18 -23.49823 -48.86310 36204 ft 394 kts 243°
2026-05-06 14:19 -23.51844 -48.91807 36204 ft 393 kts 243°
2026-05-06 14:19 -23.53872 -48.97328 36202 ft 392 kts 243°
2026-05-06 14:20 -23.55892 -49.02834 36199 ft 391 kts 243°
2026-05-06 14:20 -23.57905 -49.08327 36202 ft 390 kts 243°
2026-05-06 14:21 -23.59897 -49.13768 36204 ft 389 kts 243°
2026-05-06 14:21 -23.61895 -49.19242 36198 ft 388 kts 243°
2026-05-06 14:22 -23.63886 -49.24710 36201 ft 388 kts 243°
2026-05-06 14:22 -23.65880 -49.30185 36202 ft 388 kts 243°
2026-05-06 14:23 -23.67858 -49.35621 36202 ft 389 kts 244°
2026-05-06 14:23 -23.69854 -49.41112 36201 ft 389 kts 244°
2026-05-06 14:24 -23.71851 -49.46610 36199 ft 390 kts 244°
2026-05-06 14:24 -23.73849 -49.52121 36202 ft 391 kts 244°
2026-05-06 14:25 -23.75845 -49.57645 36196 ft 392 kts 244°
2026-05-06 14:25 -23.77824 -49.63141 36202 ft 392 kts 244°
2026-05-06 14:26 -23.79818 -49.68682 36204 ft 392 kts 244°
2026-05-06 14:26 -23.81810 -49.74217 36201 ft 391 kts 244°
2026-05-06 14:27 -23.83798 -49.79748 36194 ft 391 kts 244°
2026-05-06 14:27 -23.85785 -49.85282 36201 ft 391 kts 244°
2026-05-06 14:28 -23.87755 -49.90774 36205 ft 391 kts 244°
2026-05-06 14:28 -23.89734 -49.96305 36204 ft 391 kts 244°
2026-05-06 14:29 -23.91708 -50.01841 36203 ft 391 kts 244°
2026-05-06 14:29 -23.93680 -50.07375 36204 ft 391 kts 244°
2026-05-06 14:30 -23.95636 -50.12867 36206 ft 390 kts 244°
2026-05-06 14:30 -23.97602 -50.18397 36205 ft 390 kts 244°
2026-05-06 14:31 -23.99569 -50.23931 36199 ft 390 kts 245°
2026-05-06 14:31 -24.01530 -50.29467 36206 ft 391 kts 245°
2026-05-06 14:32 -24.03486 -50.35013 36205 ft 391 kts 245°
2026-05-06 14:32 -24.05429 -50.40523 36209 ft 391 kts 245°
2026-05-06 14:33 -24.07383 -50.46071 36198 ft 391 kts 245°
2026-05-06 14:33 -24.09335 -50.51625 36211 ft 391 kts 245°
2026-05-06 14:34 -24.11287 -50.57185 36205 ft 392 kts 245°
2026-05-06 14:34 -24.13228 -50.62715 36203 ft 392 kts 245°
2026-05-06 14:35 -24.15179 -50.68280 36205 ft 392 kts 245°
2026-05-06 14:35 -24.17131 -50.73854 36197 ft 392 kts 245°
2026-05-06 14:36 -24.19082 -50.79430 36207 ft 392 kts 245°
2026-05-06 14:36 -24.21015 -50.84965 36202 ft 392 kts 245°
2026-05-06 14:37 -24.22960 -50.90540 36192 ft 392 kts 245°
2026-05-06 14:37 -24.24902 -50.96109 36196 ft 391 kts 245°
2026-05-06 14:38 -24.26841 -51.01675 36213 ft 391 kts 246°
2026-05-06 14:38 -24.28775 -51.07240 36191 ft 391 kts 246°
2026-05-06 14:39 -24.30685 -51.12770 36186 ft 391 kts 246°
2026-05-06 14:39 -24.32604 -51.18343 36186 ft 390 kts 246°
2026-05-06 14:40 -24.34516 -51.23891 36196 ft 389 kts 246°
2026-05-06 14:40 -24.36416 -51.29405 36192 ft 389 kts 246°
2026-05-06 14:41 -24.38325 -51.34953 36191 ft 389 kts 246°
2026-05-06 14:41 -24.40237 -51.40517 36189 ft 390 kts 246°
2026-05-06 14:42 -24.42147 -51.46081 36193 ft 390 kts 246°
2026-05-06 14:42 -24.44057 -51.51655 36189 ft 390 kts 246°
2026-05-06 14:43 -24.45953 -51.57194 36189 ft 390 kts 246°
2026-05-06 14:43 -24.47858 -51.62768 36191 ft 390 kts 246°
2026-05-06 14:44 -24.49762 -51.68346 36197 ft 390 kts 246°
2026-05-06 14:45 -24.52619 -51.76727 36189 ft 391 kts 246°
2026-05-06 14:45 -24.54510 -51.82280 36201 ft 391 kts 247°
2026-05-06 14:46 -24.56410 -51.87874 36191 ft 391 kts 246°
2026-05-06 14:46 -24.58302 -51.93475 36193 ft 391 kts 246°
2026-05-06 14:47 -24.60176 -51.99034 36184 ft 390 kts 247°
2026-05-06 14:47 -24.62063 -52.04631 36194 ft 391 kts 247°
2026-05-06 14:48 -24.63947 -52.10228 36185 ft 390 kts 247°
2026-05-06 14:48 -24.65825 -52.15812 36190 ft 389 kts 247°
2026-05-06 14:49 -24.67688 -52.21357 36178 ft 389 kts 247°
2026-05-06 14:49 -24.69561 -52.26939 36169 ft 389 kts 247°
2026-05-06 14:50 -24.71427 -52.32509 36169 ft 388 kts 247°
2026-05-06 14:50 -24.72361 -52.35301 35960 ft 391 kts 248°
2026-05-06 14:50 -24.73294 -52.38091 35640 ft 386 kts 247°
2026-05-06 14:50 -24.74215 -52.40850 35202 ft 382 kts 247°
2026-05-06 14:51 -24.75113 -52.43542 34792 ft 378 kts 247°
2026-05-06 14:51 -24.76016 -52.46245 34394 ft 375 kts 247°
2026-05-06 14:51 -24.76911 -52.48930 33940 ft 372 kts 247°
2026-05-06 14:51 -24.77799 -52.51593 33494 ft 369 kts 248°
2026-05-06 14:52 -24.78679 -52.54234 33050 ft 366 kts 248°
2026-05-06 14:52 -24.79548 -52.56842 32637 ft 362 kts 248°
2026-05-06 14:52 -24.80412 -52.59435 32234 ft 359 kts 248°
2026-05-06 14:52 -24.81267 -52.62004 31842 ft 356 kts 248°
2026-05-06 14:53 -24.82115 -52.64556 31438 ft 354 kts 248°
2026-05-06 14:53 -24.82955 -52.67091 31062 ft 351 kts 249°
2026-05-06 14:53 -24.83790 -52.69609 30676 ft 349 kts 249°
2026-05-06 14:53 -24.84606 -52.72081 30317 ft 347 kts 249°
2026-05-06 14:54 -24.85428 -52.74576 29891 ft 346 kts 249°
2026-05-06 14:54 -24.86244 -52.77052 29444 ft 344 kts 249°
2026-05-06 14:54 -24.87057 -52.79517 29036 ft 341 kts 249°
2026-05-06 14:54 -24.87861 -52.81959 28628 ft 338 kts 249°
2026-05-06 14:55 -24.88661 -52.84386 28238 ft 337 kts 249°
2026-05-06 14:55 -24.89457 -52.86806 27854 ft 335 kts 249°
2026-05-06 14:55 -24.90253 -52.89223 27458 ft 337 kts 250°
2026-05-06 14:55 -24.91063 -52.91685 27089 ft 349 kts 249°
2026-05-06 14:56 -24.91903 -52.94237 26694 ft 359 kts 250°
2026-05-06 14:56 -24.92741 -52.96786 26271 ft 358 kts 250°
2026-05-06 14:56 -24.93584 -52.99352 25872 ft 356 kts 250°
2026-05-06 14:56 -24.94424 -53.01913 25444 ft 355 kts 250°
2026-05-06 14:57 -24.95261 -53.04466 25045 ft 354 kts 250°
2026-05-06 14:57 -24.96095 -53.07011 24639 ft 353 kts 250°
2026-05-06 14:57 -24.96927 -53.09550 24234 ft 353 kts 250°
2026-05-06 14:57 -24.97758 -53.12090 23833 ft 352 kts 250°
2026-05-06 14:58 -24.98589 -53.14632 23377 ft 352 kts 250°
2026-05-06 14:58 -24.99406 -53.17132 22969 ft 350 kts 250°
2026-05-06 14:58 -25.00229 -53.19650 22565 ft 348 kts 251°
2026-05-06 14:58 -25.01048 -53.22159 22174 ft 346 kts 250°
2026-05-06 14:59 -25.01861 -53.24649 21791 ft 344 kts 250°
2026-05-06 14:59 -25.02667 -53.27123 21398 ft 343 kts 251°
2026-05-06 14:59 -25.03471 -53.29591 21023 ft 341 kts 251°
2026-05-06 14:59 -25.04271 -53.32048 20642 ft 340 kts 251°
2026-05-06 15:00 -25.05068 -53.34497 20280 ft 338 kts 251°
2026-05-06 15:00 -25.05862 -53.36934 19906 ft 337 kts 251°
2026-05-06 15:00 -25.06652 -53.39364 19527 ft 336 kts 251°
2026-05-06 15:00 -25.07430 -53.41758 19161 ft 336 kts 251°
2026-05-06 15:01 -25.08216 -53.44183 18868 ft 336 kts 251°
2026-05-06 15:01 -25.09003 -53.46607 18501 ft 335 kts 251°
2026-05-06 15:01 -25.09788 -53.49028 18078 ft 335 kts 251°
2026-05-06 15:01 -25.10569 -53.51436 17698 ft 333 kts 251°
2026-05-06 15:02 -25.11347 -53.53835 17311 ft 331 kts 251°
2026-05-06 15:02 -25.12119 -53.56222 16942 ft 330 kts 251°
2026-05-06 15:02 -25.12889 -53.58600 16568 ft 328 kts 252°
2026-05-06 15:02 -25.13654 -53.60967 16199 ft 327 kts 252°
2026-05-06 15:03 -25.14407 -53.63299 15848 ft 326 kts 252°
2026-05-06 15:03 -25.15165 -53.65647 15481 ft 325 kts 253°
2026-05-06 15:03 -25.15922 -53.67996 15113 ft 324 kts 252°
2026-05-06 15:03 -25.16673 -53.70339 14729 ft 324 kts 252°
2026-05-06 15:04 -25.17426 -53.72681 14366 ft 324 kts 252°
2026-05-06 15:04 -25.18180 -53.75025 13991 ft 324 kts 253°
2026-05-06 15:04 -25.18434 -53.75818 13851 ft 324 kts 253°
2026-05-06 15:05 -25.20487 -53.82222 12813 ft 320 kts 253°
2026-05-06 15:05 -25.21228 -53.84536 12469 ft 319 kts 253°
2026-05-06 15:05 -25.21996 -53.86792 12109 ft 318 kts 246°
2026-05-06 15:05 -25.23393 -53.88678 11784 ft 321 kts 220°
2026-05-06 15:06 -25.25283 -53.89979 11471 ft 320 kts 210°
2026-05-06 15:06 -25.27265 -53.91092 11134 ft 319 kts 208°
2026-05-06 15:06 -25.29256 -53.92171 10801 ft 318 kts 207°
2026-05-06 15:06 -25.31238 -53.93250 10472 ft 317 kts 208°
2026-05-06 15:07 -25.33185 -53.94323 10315 ft 309 kts 208°
2026-05-06 15:07 -25.35081 -53.95379 10187 ft 301 kts 208°
2026-05-06 15:07 -25.36937 -53.96418 9940 ft 298 kts 209°
2026-05-06 15:07 -25.38763 -53.97447 9630 ft 298 kts 209°
2026-05-06 15:08 -25.40605 -53.98487 9315 ft 297 kts 209°
2026-05-06 15:08 -25.42441 -53.99526 9021 ft 296 kts 209°
2026-05-06 15:08 -25.44270 -54.00561 8728 ft 295 kts 210°
2026-05-06 15:08 -25.46089 -54.01592 8421 ft 294 kts 210°
2026-05-06 15:09 -25.47815 -54.02766 8122 ft 288 kts 227°
2026-05-06 15:09 -25.49088 -54.04442 7855 ft 283 kts 236°
2026-05-06 15:09 -25.50284 -54.06175 7554 ft 283 kts 237°
2026-05-06 15:09 -25.51462 -54.07882 7261 ft 283 kts 237°
2026-05-06 15:10 -25.52659 -54.09607 6981 ft 282 kts 237°
2026-05-06 15:10 -25.53860 -54.11328 6694 ft 282 kts 237°
2026-05-06 15:10 -25.55060 -54.13042 6408 ft 281 kts 237°
2026-05-06 15:10 -25.56259 -54.14752 6096 ft 281 kts 237°
2026-05-06 15:11 -25.57457 -54.16457 5826 ft 281 kts 237°
2026-05-06 15:11 -25.58660 -54.18167 5521 ft 281 kts 237°
2026-05-06 15:11 -25.59856 -54.19868 5234 ft 280 kts 237°
2026-05-06 15:11 -25.61035 -54.21546 4970 ft 279 kts 237°
2026-05-06 15:12 -25.62215 -54.23225 4825 ft 273 kts 237°
2026-05-06 15:12 -25.63377 -54.24851 4690 ft 266 kts 236°
2026-05-06 15:12 -25.64553 -54.26393 4577 ft 258 kts 235°
2026-05-06 15:12 -25.65706 -54.27894 4459 ft 253 kts 235°
2026-05-06 15:13 -25.66828 -54.29360 4346 ft 245 kts 236°
2026-05-06 15:13 -25.67897 -54.30758 4235 ft 232 kts 236°
2026-05-06 15:13 -25.68689 -54.32216 4077 ft 208 kts 266°
2026-05-06 15:13 -25.68685 -54.33683 3799 ft 188 kts 290°
2026-05-06 15:14 -25.68265 -54.34966 3566 ft 169 kts 304°
2026-05-06 15:14 -25.67764 -54.36110 3350 ft 164 kts 304°
2026-05-06 15:14 -25.67283 -54.37219 3155 ft 154 kts 304°
2026-05-06 15:14 -25.66837 -54.38249 2950 ft 141 kts 306°
2026-05-06 15:15 -25.66423 -54.39193 2766 ft 132 kts 307°
2026-05-06 15:15 -25.66025 -54.40099 2612 ft 130 kts 306°
2026-05-06 15:15 -25.65536 -54.40953 2435 ft 133 kts 318°
2026-05-06 15:15 -25.64955 -54.41747 2272 ft 135 kts 319°
2026-05-06 15:16 -25.64336 -54.42550 2074 ft 143 kts 318°
2026-05-06 15:16 -25.63649 -54.43455 1874 ft 157 kts 314°
2026-05-06 15:16 -25.62968 -54.44352 1668 ft 148 kts 316°
2026-05-06 15:16 -25.62310 -54.45204 1472 ft 143 kts 315°
2026-05-06 15:17 -25.61662 -54.46035 1277 ft 143 kts 313°
2026-05-06 15:17 -25.61016 -54.46877 1095 ft 145 kts 311°
2026-05-06 15:17 -25.60376 -54.47719 875 ft 141 kts 315°
2026-05-06 15:17 -25.59755 -54.48516 794 ft 125 kts 311°
2026-05-06 15:18 -25.59292 -54.49107 799 ft 70 kts 311°
2026-05-06 15:18 -25.59044 -54.49422 796 ft 33 kts 311°
2026-05-06 15:18 -25.58937 -54.49510 795 ft 9 kts 310°
2026-05-06 15:18 -25.58947 -54.49544 795 ft 5 kts 182°
2026-05-06 15:19 -25.58994 -54.49485 795 ft 15 kts 141°
2026-05-06 15:19 -25.59071 -54.49387 795 ft 19 kts 130°
2026-05-06 15:19 -25.59164 -54.49267 796 ft 23 kts 131°
2026-05-06 15:19 -25.59282 -54.49116 799 ft 29 kts 131°
2026-05-06 15:20 -25.59416 -54.48946 800 ft 29 kts 131°
2026-05-06 15:20 -25.59489 -54.48900 800 ft 10 kts 198°
2026-05-06 15:20 -25.59556 -54.48926 798 ft 11 kts 157°
2026-05-06 15:20 -25.59612 -54.48866 797 ft 11 kts 131°
2026-05-06 15:21 -25.59631 -54.48851 797 ft 1 kts 167°
2026-05-06 15:21 -25.59640 -54.48858 797 ft 2 kts 218°
2026-05-06 15:21 -25.59650 -54.48867 797 ft 2 kts 218°
2026-05-06 15:21 -25.59660 -54.48876 797 ft 2 kts 220°
2026-05-06 15:22 -25.59664 -54.48880 797 ft 0 kts 220°